Location: Unspecified
(0.0000°N, 0.0000°E)
Time: 13:26:23
(UTC+00:00)

Altair - Pass Details

Date: 18 July 2024
Orbit: 1501 x 1682 km, 47.2° (Epoch: 28 April)

Event Time Altitude Azimuth Distance (km) Brightness Sun altitude
Rises 01:04:13 0° 356° (N) 4,646 10.3 -64.7°
Enters shadow 01:09:45 - 23° (NNE) 3,762 9.8 -63.9°
Exits shadow 01:16:29 10° 66° (ENE) 3,790 9.8 -62.9°
Sets 01:22:21 0° 93° (E) 4,781 10.3 -62.0°
